User: anonymous   Login
Location: Unspecified
(0.0000°N, 0.0000°E)
Time: 19:38:26
(UTC+00:00)
Language:

DOVE 4 - Orbit

View from above orbital plane
View from above orbital plane
View from above satellite
View from above satellite

Ground track
Ground track

The orbit data is extracted from the following two-line orbital elements,

1 39430U 13066Q   18351.53744116  .00000191  00000-0  43097-4 0  9992
2 39430  97.7218 315.4389 0152504 111.6356 250.1161 14.59167039269893
Epoch (UTC): 17 December 2018 12:53:54
Eccentricity: 0.0152504
inclination: 97.7218°
perigee height: 588 km
apogee height: 804 km
right ascension of ascending node: 315.4389°
argument of perigee: 111.6356°
revolutions per day: 14.59167039
mean anomaly at epoch: 250.1161°
orbit number at epoch: 26989

The dashed part of the orbit path shows where the satellite is in the earth's shadow,  

DLR